Regional Weather Roundup
Issued by NWS

Home | Current Version | Previous Version | Graphics & Text | Print | Product List | Glossary On
Versions: 1 2 3 4 5 6 7 8 9 10 11 12 13 14 15 16 17 18 19 20 21 22 23 24 25 26 27 28 29 30 31 32 33 34 35 36 37 38 39 40 41 42 43 44 45 46 47 48 49 50
000
ASUS45 KTFX 291704
RWRMT
MONTANA HOURLY WEATHER ROUNDUP
NATIONAL WEATHER SERVICE GREAT FALLS MT
1104 AM MDT FRI AUG 29 2014

NOTE: "FAIR" INDICATES FEW OR NO CLOUDS BELOW 12000 FEET WITH NO
SIGNIFICANT WEATHER AND/OR OBSTRUCTIONS TO VISIBILITY.

* THESE STATIONS ARE NOT UNDER NWS QUALITY CONTROL. THEY DO NOT
   REPORT WEATHER SUCH AS PRECIPITATION OR FOG.

MTZ001>007-043-291800-
WEST OF THE DIVIDE
CITY           SKY/WX    TMP DP  RH WIND       PRES   REMARKS
KALISPELL      PTCLDY    64  48  56 VRB6      29.98F
MISSOULA       SUNNY     66  46  49 VRB3      30.03F
BUTTE          SUNNY     64  41  43 CALM      30.12F
MULLAN PASS    SUNNY     61  39  44 VRB3      30.10F
* LINCOLN      N/A       56  47  72 W2         N/A
* LOOKOUT PASS N/A       65  42  43 SE4        N/A
* POLSON       N/A       70  50  49 SE3        N/A
* RONAN APT    SUNNY     70  50  49 N/A        N/A
* SEELEY LAKE  N/A       62  46  56 NW2        N/A
* THOMP F APT  PTCLDY    64  47  54 SW3        N/A
$$

MTZ008-052>055-291800-
SOUTHWEST MONTANA
CITY           SKY/WX    TMP DP  RH WIND       PRES   REMARKS
BOZEMAN        SUNNY     64  50  61 N3        30.09F
DILLON         PTCLDY    64  45  50 VRB5      30.11F
W YELLOWSTONE  SUNNY     59  46  62 CALM      30.22F
* THREE FORKS  SUNNY     64  23  21 N/A        N/A
* BOULDER HILL N/A       59  37  44 S10        N/A
* MONIDA PASS  N/A       61  47  60 E9         N/A
* RAYNOLDS PAS N/A       60  42  52 S17        N/A
* WHITEHALL    N/A       65  49  56 SE3        N/A
* WISE RIVER   N/A       58  42  55 N3         N/A
$$

MTZ009>010-012-014-046-048-049-054-291800-
EAST SLOPES AND CENTRAL MONTANA
CITY           SKY/WX    TMP DP  RH WIND       PRES   REMARKS
CUT BANK       PTSUNNY   54  52  93 S12       30.02F
GREAT FALLS    SUNNY     64  50  61 E6        30.03F
HELENA         SUNNY     64  50  61 NE3       30.05F
MALMSTROM AFB  SUNNY     64  52  65 SE6       30.04F
* CONRAD       SUNNY     61  55  81 SE9        N/A
* EAST GLACIER N/A       61  46  58 W9         N/A
* MONARCH      N/A       63  40  43 E7         N/A
* PENDROY      N/A       60  46  60 S10G15     N/A
* ROGERS PASS  N/A       61  41  48 SE9G14     N/A
* SAINT MARY   N/A       58  57  96 SW2        N/A
* SWEET GRASS  N/A       56  56 100 SW21G27    N/A
$$

MTZ011-013-016-021-035-040-045-047-050-051-291800-
NORTH CENTRAL MONTANA
CITY           SKY/WX    TMP DP  RH WIND       PRES   REMARKS
HAVRE          SUNNY     63  50  63 E6        30.03F
LEWISTOWN      SUNNY     66  48  52 SE3       30.08F
* CHESTER      N/A       60  49  67 SE7G14     N/A
* DENTON       N/A       63  48  58 NE5        N/A
* JUDITH GAP   N/A       63  45  52 S11        N/A
* LOMA         N/A       62  51  67 E6G15      N/A
$$

MTZ017>020-022>027-061-062-291800-
NORTHEAST MONTANA
CITY           SKY/WX    TMP DP  RH WIND       PRES   REMARKS
GLASGOW        CLOUDY    63  52  68 VRB6      30.05S
GLENDIVE       CLOUDY    61  55  81 NW9       30.04S
JORDAN         SUNNY     63  52  68 NE7       30.06S
SIDNEY         PTSUNNY   64  55  73 N12       30.02R
WOLF POINT     CLOUDY    66  54  65 N14       30.03S
* BEAVER HILL  N/A       60  55  84 NW14       N/A
* CIRCLE       N/A       64  55  73 N5G10      N/A
* LINDSAY DVD  N/A       58  55  90 NW9        N/A
* NAVAJO       N/A       61  53  75 VRB9G14    N/A
$$

MTZ028>042-056>058-291800-
SOUTHCENTRAL AND SOUTHEAST MONTANA
CITY           SKY/WX    TMP DP  RH WIND       PRES   REMARKS
BAKER          CLOUDY    64  54  70 NW18G25   30.03S
BILLINGS       SUNNY     66  52  61 NE7       30.09F
LIVINGSTON     SUNNY     66  52  61 CALM      30.09F
MILES CITY     PTSUNNY   64  52  65 NW14      30.06S
* LAUREL APT   SUNNY     66  48  52 N/A        N/A
* ROUNDUP APT  SUNNY     64  50  61 N/A        N/A
* ALZADA       N/A       67  56  68 SW4        N/A
* HYSHAM       N/A       64  46  52 N/A        N/A
* LAME DEER    N/A       57  54  90 NW4        N/A
* REED POINT   N/A       68  51  55 E8G13      N/A
* ROSCOE HILL  N/A       61  43  52 SE4        N/A
$$

REGIONAL REPORTS...DAKOTAS
CITY           SKY/WX    TMP DP  RH WIND       PRES   REMARKS
WILLISTON      PTSUNNY   68  55  63 N17       29.99R
DICKINSON      CLOUDY    63  55  75 NW18G25   29.95R
BEACH          N/A       59  59 100 NW13      30.02R
CROSBY         PTCLDY    66  52  61 N13       30.00R
TIOGA          CLOUDY    63  59  87 N14       30.00R
WATFORD CITY   CLOUDY    63  55  75 N10       29.96R
BISMARCK       PTSUNNY   70  59  68 NW16G26   29.88R
GRAND FORKS    CLOUDY    68  64  87 S7        29.76S
FARGO          CLOUDY    70  64  81 SW3       29.76S
BUFFALO SD     CLOUDY    70  54  57 NW30      29.92S
RAPID CITY     LGT RAIN  64  54  70 N16G28    30.00R
$$

REGIONAL REPORTS...WYOMING/IDAHO/WASHINGTON
CITY           SKY/WX    TMP DP  RH WIND       PRES   REMARKS
GILLETTE       PTCLDY    70  54  57 NW10      30.09S
SHERIDAN       CLOUDY    64  54  70 NW9       30.11S
CODY           SUNNY    N/A N/A N/A N5        30.12F
YELLOWSTONE LA SUNNY     55  46  72 VRB5      30.31S
SALMON         SUNNY     64  45  50 CALM      30.06F
MULLAN PASS    SUNNY     61  39  44 VRB3      30.10S
SAND POINT     SUNNY     66  52  61 CALM      29.95F
SPOKANE        PTCLDY    70  46  42 SW9       29.94F
$$

REGIONAL REPORTS...ALBERTA
CITY           SKY/WX    TMP DP  RH WIND       PRES   REMARKS
CALGARY        CLOUDY    50  45  83 S15G21    29.92F

$$




USA.gov is the U.S. government's official web portal to all federal, state and local government web resources and services.